SCP
0 0 0 0 0 0 0 0 0 0 0 0 0 0 0 0 0 0 0 0 0 0 0 0 0 0 0 0 0 0 0 0 0 0 0 0 0 0 0 0 0 0 0 0
0 0 0 0 0 0 0 1 1 1 1 1 0 0 0 0 0 0 0 0 0 0 0 0 0 0 0 0 0 0 0 0 0 0 0 0 0 0 0 0 0 0 0 0
0 0 0 0 0 0 0 1 0 0 0 0 0 0 0 0 -0 0 0 0 0 0 0 0 0 0 0 0 0 0 0 0 0 0 0 0 0 0 0 0 0 0 0 0
0 0 0 0 0 0 1 1 1 1 1 0 0 0 0 -0 -0 0 0 0 0 0 0 0 0 0 0 0 0 0 0 0 0 0 0 0 0 0 0 0 0 0 0 0
0 0 0 0 0 0 0 1 0 1 0 0 0 0 -0 -0 -0 0 0 0 0 0 0 0 0 0 0 0 0 0 0 0 0 0 0 0 0 0 0 0 0 0 0 0
0 0 0 0 0 0 0 0 0 1 0 1 1 1 -0 0 0 0 0 0 0 0 0 0 0 0 0 0 0 0 0 0 0 0 0 0 0 0 0 0 0 0 0 0
0 0 0 0 0 0 0 0 0 1 1 0 0 0 0 0 0 0 0 0 0 0 0 0 0 0 0 0 0 0 0 0 0 0 0 0 0 0 0 0 0 0 0 0
0 0 0 0 0 0 0 0 0 0 1 0 0 0 0 0 0 0 0 0 0 0 0 0 0 0 0 0 0 0 0 0 0 0 0 0 0 0 0 0 0 0 0 0
0 0 0 0 0 0 0 0 0 0 0 0 0 0 0 0 0 0 0 0 0 0 0 0 0 0 0 0 0 0 0 0 0 0 0 0 0 0 0 0 0 0 0 0
0 0 0 0 0 0 0 0 0 0 0 0 0 0 0 0 0 0 0 0 0 0 0 0 0 0 0 0 0 0 0 0 0 0 0 0 0 0 0 0 0 0 0 0
0 0 0 0 0 0 0 0 0 0 0 0 0 0 0 0 0 0 0 0 0 0 0 0 0 0 0 0 0 0 0 0 0 0 0 0 0 0 0 0 0 0 0 0
0 0 0 0 0 0 0 0 0 0 0 0 0 0 0 0 0 0 0 0 0 0 0 0 0 0 0 0 0 0 0 0 0 0 0 0 0 0 0 -0 0 0 -0 0
0 0 0 0 0 0 0 0 0 0 0 0 0 0 0 0 0 0 0 0 0 0 0 0 0 0 0 0 0 0 0 0 0 0 0 0 0 0 0 0 -0 0 0 0
0 -0 0 0 0 0 -0 0 0 0 0 0 0 0 0 0 0 0 0 0 0 0 0 0 0 0 0 0 0 0 0 0 0 0 0 0 0 0 0 0 0 -0 0 0
-0 0 0 0 -0 0 0 0 0 0 0 0 0 0 0 0 0 0 0 0 0 0 0 0 0 0 0 0 0 0 0 0 0 0 0 0 0 0 0 0 0 0 0 0
0 0 -0 -0 -0 -0 0 0 0 0 0 0 0 0 0 0 0 0 0 0 0 0 0 0 0 0 0 0 0 0 0 0 0 0 0 0 0 0 0 0 0 0 0 0
0 0 0 0 -0 -0 -0 0 0 0 0 0 0 0 0 0 0 0 0 0 0 0 0 0 0 0 0 0 0 0 0 0 0 0 0 0 0 0 0 0 0 0 0 0
-0 -0 -0 -0 -0 0 0 0 0 0 0 0 0 0 0 0 0 0 0 0 0 0 0 0 0 0 0 0 0 0 0 0 0 0 0 0 0 0 0 0 0 0 0 0
0 -0 -0 0 0 0 0 0 0 0 0 0 0 0 0 0 0 0 0 0 0 0 0 0 0 0 0 0 0 0 0 0 0 0 0 0 0 0 0 0 0 0 0 0
0 0 0 0 0 0 0 0 0 0 0 0 0 0 0 0 0 0 0 0 0 0 0 0 0 0 0 0 0 0 0 0 0 0 0 0 0 0 0 0 0 0 0 0
0 0 0 0 0 0 0 0 0 0 0 0 0 0 0 0 0 0 0 0 0 0 0 0 0 0 0 0 0 0 0 0 0 0 0 0 0 0 0 0 0 0 0 0
0 0 0 0 0 0 0 0 0 0 0 0 0 0 0 0 0 0 0 0 0 0 0 0 0 0 0 0 0 0 0 0 0 0 0 0 0 0 0 0 0 0 0 0
0 0 0 0 0 0 0 0 0 0 0 0 0 0 0 0 0 0 0 0 0 0 0 0 0 0 0 0 0 0 0 0 0 0 0 0 0 0 0 0 0 0 0 0
0 0 0 0 0 0 0 0 0 0 0 0 0 0 0 0 0 0 0 0 0 0 0 0 0 0 0 0 0 0 0 0 0 0 0 0 0 0 0 0 0 0 0 -0
0 0 0 0 0 0 0 0 0 0 -0 -0 -0 0 0 0 0 0 0 0 0 0 0 0 0 0 0 0 0 0 0 0 0 0 0 0 0 0 0 0 0 0 0 0
0 0 0 0 0 0 0 0 0 -0 0 -0 -0 0 0 0 0 0 0 0 0 0 0 0 0 0 0 0 0 0 0 0 0 0 0 0 0 0 0 0 0 0 0 0
0 0 0 0 0 0 0 0 0 -0 0 0 0 0 0 0 0 0 0 0 0 0 0 0 0 0 0 0 0 0 0 0 0 0 0 0 0 0 0 0 0 0 0 0
Wind_Speed_500mb
8 18 15 13 11 14 7 2 8 11 15 29 29 25 25 22 34 40 38 39 34 31 25 21 20 20 20 20 17 15 14 12 6 3 3 3 2 4 6 8 13 18 18 18
12 9 25 14 23 12 8 10 11 14 9 15 16 22 23 28 39 36 33 32 32 25 20 17 18 17 17 15 12 8 7 4 3 4 1 5 8 10 11 15 16 16 22 18
10 5 5 15 16 15 4 9 11 7 10 19 15 24 31 38 36 35 36 34 26 19 18 17 16 14 13 9 6 6 7 6 3 3 9 13 17 17 17 20 22 19 18 22
6 2 7 14 7 5 13 8 12 20 13 19 26 23 34 36 38 36 35 28 24 22 21 16 13 11 8 7 5 6 8 8 10 12 15 21 24 22 22 23 24 20 20 24
8 6 5 8 12 5 5 5 12 23 20 21 24 13 16 35 36 31 30 29 27 22 15 8 6 6 5 8 12 14 14 15 17 18 19 23 23 24 25 25 21 24 24 28
5 10 13 16 9 12 3 9 29 18 28 38 39 10 8 44 37 30 29 29 31 27 20 14 13 11 10 9 14 18 18 16 15 17 22 28 32 34 32 28 29 32 34 40
3 4 9 7 10 15 9 13 25 31 46 47 16 14 17 42 41 40 35 36 33 24 14 12 15 15 13 11 11 14 11 13 17 22 29 35 39 40 37 33 37 40 43 39
3 5 5 10 12 13 11 10 17 22 42 56 34 24 17 45 47 50 48 43 34 25 24 20 16 18 17 17 13 16 17 20 25 30 36 41 45 44 37 37 39 45 42 48
12 10 8 7 7 14 19 24 18 16 19 27 41 19 30 54 53 53 47 41 35 28 19 18 20 22 23 20 20 23 27 27 30 37 36 40 41 42 36 39 40 43 48 55
4 5 3 6 22 20 25 22 21 25 32 38 32 34 40 49 54 52 49 39 26 22 21 23 23 25 30 29 32 27 27 32 35 38 34 34 34 33 33 37 41 48 54 59
4 5 13 17 31 33 28 23 21 19 19 18 20 32 39 50 53 49 42 32 25 19 20 21 25 26 25 25 26 28 31 35 37 39 36 34 35 31 33 37 41 50 53 56
10 31 18 37 36 34 30 25 21 20 21 19 19 21 34 38 42 44 39 30 26 25 27 25 25 27 24 23 27 30 34 36 38 39 37 39 36 36 41 48 43 42 47 49
7 34 16 40 36 28 25 21 17 21 23 31 26 27 28 28 43 42 34 27 25 24 23 26 20 20 23 24 28 34 38 40 39 34 39 37 39 46 46 43 43 48 50 47
24 42 31 46 41 33 22 17 8 8 10 10 18 22 26 35 44 39 31 26 22 19 16 16 16 20 18 22 34 40 41 41 42 43 42 45 50 45 49 53 61 63 55 58
49 30 28 41 42 31 19 14 8 7 7 6 9 11 18 29 35 31 25 25 19 21 22 19 22 22 21 23 26 27 31 36 40 44 46 49 48 50 55 57 61 65 67 51
50 29 37 49 45 36 24 18 16 20 18 13 12 13 16 16 19 22 22 24 30 29 24 24 29 29 28 29 31 36 39 42 44 48 50 52 53 56 59 60 65 68 61 62
50 30 42 53 47 36 34 29 25 24 23 27 19 18 22 23 25 28 31 32 34 36 32 34 35 33 34 29 36 41 41 40 42 48 54 59 62 65 66 64 67 66 60 58
42 29 32 40 43 43 42 36 32 30 27 22 18 32 33 35 33 33 27 23 27 30 32 33 33 31 33 36 37 40 46 53 58 63 65 67 64 60 55 58 62 66 63 53
41 33 37 44 40 36 41 35 37 27 18 16 17 20 27 27 27 27 26 27 31 36 24 18 25 32 40 43 46 49 49 53 58 60 60 57 56 48 49 52 62 64 62 57
44 41 36 42 43 37 39 40 30 20 17 15 9 11 20 24 22 22 22 25 27 31 27 27 35 44 47 50 52 55 57 57 58 58 50 46 48 50 53 54 58 58 52 51
31 33 33 30 25 33 32 31 28 21 18 17 16 15 14 15 18 21 28 35 27 27 31 37 40 44 39 37 37 40 43 48 54 56 57 58 60 62 63 62 64 56 55 51
25 31 28 23 26 30 35 33 21 14 19 16 16 19 22 24 25 29 32 38 29 30 37 42 43 39 38 38 39 40 44 49 55 60 64 68 73 76 75 72 72 58 49 36
29 27 23 25 25 27 35 30 18 15 16 17 18 18 21 24 29 37 45 33 42 40 43 48 49 44 46 53 56 60 63 65 64 64 65 72 81 80 71 57 27 33 48 63
20 17 15 14 25 36 37 27 23 21 19 16 19 24 29 36 44 46 48 45 39 42 46 46 46 46 42 47 51 56 61 63 62 71 72 66 59 45 13 15 36 56 60 67
14 17 21 22 28 38 33 28 22 20 22 21 21 26 32 36 40 41 43 44 45 41 41 39 36 41 49 54 62 66 70 65 47 53 54 41 6 10 27 44 57 83 87 63
20 18 19 20 23 26 30 28 24 20 20 24 23 22 24 26 37 33 33 35 42 47 42 40 44 49 57 61 59 62 59 47 40 47 47 29 19 39 57 72 66 54 41 34
23 20 19 20 25 29 26 23 22 23 24 25 27 29 37 42 36 32 33 34 32 34 42 50 56 56 57 54 62 52 43 39 40 39 21 30 53 60 46 37 32 32 30 25
Wind_Direction_500mb
57 108 87 59 2 4 95 21 152 224 167 176 175 173 178 161 155 155 150 153 167 180 182 176 166 153 152 148 157 175 185 194 203 211 201 218 293 325 308 321 320 333 340 356
49 84 74 61 21 18 38 89 58 75 80 151 146 150 166 172 173 172 175 184 188 192 185 159 150 150 146 151 166 166 174 151 136 138 338 310 301 301 303 314 313 333 341 336
181 297 50 30 342 342 124 64 146 190 169 138 137 167 186 190 193 195 193 195 197 183 162 154 139 126 115 125 154 159 157 172 207 285 324 327 319 310 308 305 298 304 335 333
146 83 75 232 295 284 74 76 94 96 134 149 154 188 199 200 202 207 207 202 186 170 155 147 158 156 156 154 189 210 225 243 267 288 308 319 319 317 302 303 305 313 326 323
117 77 344 323 265 183 104 291 190 148 150 140 147 146 219 215 209 220 211 188 171 159 166 177 191 207 237 278 275 268 272 283 285 290 307 317 310 310 309 306 304 311 317 323
119 126 188 225 221 210 73 280 203 188 163 146 148 142 240 196 198 189 194 178 175 177 184 207 213 228 259 282 293 292 282 283 282 297 312 313 315 311 306 299 303 307 308 316
81 162 281 250 175 132 107 236 178 178 163 161 186 165 199 185 182 189 186 184 184 185 200 221 235 245 247 269 316 314 280 284 292 297 303 311 311 310 301 296 300 299 299 308
87 69 271 174 111 162 213 160 182 188 189 184 181 201 191 192 193 197 198 193 191 202 209 213 234 251 262 278 313 298 292 296 298 301 303 306 305 301 290 293 296 303 300 307
166 215 274 285 235 217 167 149 153 158 178 198 193 215 190 199 205 207 197 195 203 208 219 234 250 258 266 283 278 272 268 275 292 299 304 307 300 298 287 293 287 300 300 307
74 227 258 106 141 152 174 172 166 172 176 188 195 191 198 200 197 192 194 196 201 215 234 244 249 263 272 269 266 262 267 285 295 301 304 306 301 297 292 287 291 297 304 309
300 348 110 132 138 137 133 141 151 153 163 171 195 201 203 193 192 196 196 196 207 224 242 257 262 268 274 266 262 271 284 291 294 298 304 303 299 292 293 290 297 303 306 310
214 194 174 179 157 149 147 148 156 171 184 199 215 223 213 212 212 204 200 209 223 238 246 257 267 282 285 273 268 277 284 289 295 303 306 309 309 302 308 306 296 301 310 309
211 184 155 171 173 170 156 146 161 191 200 204 210 217 224 228 224 207 212 228 241 251 271 277 278 291 289 281 272 277 282 300 295 299 308 305 302 306 314 306 302 310 312 304
189 170 144 165 170 170 183 169 181 212 211 210 210 205 222 228 207 209 233 246 246 270 275 275 279 297 319 297 275 277 282 289 286 289 300 303 302 298 301 305 309 320 311 309
173 179 181 178 164 164 170 145 133 103 93 159 171 169 184 201 212 223 233 237 254 267 274 277 282 298 312 301 297 294 288 286 288 290 292 297 298 301 301 304 308 310 309 309
174 182 181 178 182 176 178 191 197 195 195 186 195 213 209 205 208 217 226 238 249 262 272 281 287 300 310 306 292 287 287 287 286 288 292 296 297 299 301 305 311 315 311 308
182 192 186 186 180 192 214 212 211 208 211 218 229 241 237 229 228 233 242 247 262 268 275 279 291 305 305 297 299 293 286 283 285 290 294 297 297 299 296 300 305 304 305 307
202 209 219 211 200 212 210 212 214 221 222 232 245 246 231 234 244 249 254 257 266 277 280 288 295 291 288 294 292 287 289 291 292 293 296 301 304 304 300 295 299 305 300 301
206 216 206 205 213 218 211 217 208 205 222 250 252 239 232 240 238 244 256 259 272 281 291 285 278 284 288 290 290 290 290 294 295 302 301 299 299 295 296 305 311 309 306 289
217 219 211 209 222 220 207 205 205 216 222 221 258 269 243 241 254 265 269 274 280 288 292 290 301 304 302 295 295 289 280 287 291 299 299 297 297 296 298 297 304 309 309 300
193 189 192 200 197 196 209 209 213 214 224 233 256 267 269 267 269 274 277 284 285 280 283 294 300 302 299 301 301 299 291 288 292 295 293 291 294 292 295 297 299 293 294 291
187 181 181 180 186 199 208 211 208 223 228 251 271 269 272 283 283 280 283 285 283 281 292 294 295 290 292 298 299 299 299 298 297 297 295 295 296 297 297 295 295 288 294 303
172 180 189 200 211 222 208 201 219 243 250 259 271 278 281 284 286 289 295 298 300 294 290 289 287 292 295 295 296 296 299 301 298 295 298 298 299 302 300 300 310 323 323 313
186 197 213 221 223 211 204 216 228 249 255 273 279 278 281 290 300 298 301 301 300 299 295 291 290 290 298 300 301 302 301 294 296 303 303 305 308 303 215 307 334 336 332 324
203 238 247 244 227 217 223 224 234 261 263 265 275 289 303 309 302 311 310 303 307 304 305 307 301 297 300 304 305 301 296 300 293 293 311 326 260 291 333 337 328 332 325 313
255 245 240 235 234 229 222 234 257 254 239 262 280 300 311 312 324 321 311 309 309 308 303 301 304 301 305 307 316 320 306 277 288 304 314 282 278 332 330 317 312 309 315 315
248 233 236 238 231 224 231 251 257 241 258 284 291 299 305 306 303 307 305 313 321 321 319 310 307 308 311 302 310 311 289 291 306 308 300 325 332 320 306 322 324 324 325 324
Wind_Speed_850mb
8 18 15 13 11 14 7 2 8 11 15 29 29 25 25 22 34 40 38 39 34 31 25 21 20 20 20 20 17 15 14 12 6 3 3 3 2 4 6 8 13 18 18 18
12 9 25 14 23 12 8 10 11 14 9 15 16 22 23 28 39 36 33 32 32 25 20 17 18 17 17 15 12 8 7 4 3 4 1 5 8 10 11 15 16 16 22 18
10 5 5 15 16 15 4 9 11 7 10 19 15 24 31 38 36 35 36 34 26 19 18 17 16 14 13 9 6 6 7 6 3 3 9 13 17 17 17 20 22 19 18 22
6 2 7 14 7 5 13 8 12 20 13 19 26 23 34 36 38 36 35 28 24 22 21 16 13 11 8 7 5 6 8 8 10 12 15 21 24 22 22 23 24 20 20 24
8 6 5 8 12 5 5 5 12 23 20 21 24 13 16 35 36 31 30 29 27 22 15 8 6 6 5 8 12 14 14 15 17 18 19 23 23 24 25 25 21 24 24 28
5 10 13 16 9 12 3 9 29 18 28 38 39 10 8 44 37 30 29 29 31 27 20 14 13 11 10 9 14 18 18 16 15 17 22 28 32 34 32 28 29 32 34 40
3 4 9 7 10 15 9 13 25 31 46 47 16 14 17 42 41 40 35 36 33 24 14 12 15 15 13 11 11 14 11 13 17 22 29 35 39 40 37 33 37 40 43 39
3 5 5 10 12 13 11 10 17 22 42 56 34 24 17 45 47 50 48 43 34 25 24 20 16 18 17 17 13 16 17 20 25 30 36 41 45 44 37 37 39 45 42 48
12 10 8 7 7 14 19 24 18 16 19 27 41 19 30 54 53 53 47 41 35 28 19 18 20 22 23 20 20 23 27 27 30 37 36 40 41 42 36 39 40 43 48 55
4 5 3 6 22 20 25 22 21 25 32 38 32 34 40 49 54 52 49 39 26 22 21 23 23 25 30 29 32 27 27 32 35 38 34 34 34 33 33 37 41 48 54 59
4 5 13 17 31 33 28 23 21 19 19 18 20 32 39 50 53 49 42 32 25 19 20 21 25 26 25 25 26 28 31 35 37 39 36 34 35 31 33 37 41 50 53 56
10 31 18 37 36 34 30 25 21 20 21 19 19 21 34 38 42 44 39 30 26 25 27 25 25 27 24 23 27 30 34 36 38 39 37 39 36 36 41 48 43 42 47 49
7 34 16 40 36 28 25 21 17 21 23 31 26 27 28 28 43 42 34 27 25 24 23 26 20 20 23 24 28 34 38 40 39 34 39 37 39 46 46 43 43 48 50 47
24 42 31 46 41 33 22 17 8 8 10 10 18 22 26 35 44 39 31 26 22 19 16 16 16 20 18 22 34 40 41 41 42 43 42 45 50 45 49 53 61 63 55 58
49 30 28 41 42 31 19 14 8 7 7 6 9 11 18 29 35 31 25 25 19 21 22 19 22 22 21 23 26 27 31 36 40 44 46 49 48 50 55 57 61 65 67 51
50 29 37 49 45 36 24 18 16 20 18 13 12 13 16 16 19 22 22 24 30 29 24 24 29 29 28 29 31 36 39 42 44 48 50 52 53 56 59 60 65 68 61 62
50 30 42 53 47 36 34 29 25 24 23 27 19 18 22 23 25 28 31 32 34 36 32 34 35 33 34 29 36 41 41 40 42 48 54 59 62 65 66 64 67 66 60 58
42 29 32 40 43 43 42 36 32 30 27 22 18 32 33 35 33 33 27 23 27 30 32 33 33 31 33 36 37 40 46 53 58 63 65 67 64 60 55 58 62 66 63 53
41 33 37 44 40 36 41 35 37 27 18 16 17 20 27 27 27 27 26 27 31 36 24 18 25 32 40 43 46 49 49 53 58 60 60 57 56 48 49 52 62 64 62 57
44 41 36 42 43 37 39 40 30 20 17 15 9 11 20 24 22 22 22 25 27 31 27 27 35 44 47 50 52 55 57 57 58 58 50 46 48 50 53 54 58 58 52 51
31 33 33 30 25 33 32 31 28 21 18 17 16 15 14 15 18 21 28 35 27 27 31 37 40 44 39 37 37 40 43 48 54 56 57 58 60 62 63 62 64 56 55 51
25 31 28 23 26 30 35 33 21 14 19 16 16 19 22 24 25 29 32 38 29 30 37 42 43 39 38 38 39 40 44 49 55 60 64 68 73 76 75 72 72 58 49 36
29 27 23 25 25 27 35 30 18 15 16 17 18 18 21 24 29 37 45 33 42 40 43 48 49 44 46 53 56 60 63 65 64 64 65 72 81 80 71 57 27 33 48 63
20 17 15 14 25 36 37 27 23 21 19 16 19 24 29 36 44 46 48 45 39 42 46 46 46 46 42 47 51 56 61 63 62 71 72 66 59 45 13 15 36 56 60 67
14 17 21 22 28 38 33 28 22 20 22 21 21 26 32 36 40 41 43 44 45 41 41 39 36 41 49 54 62 66 70 65 47 53 54 41 6 10 27 44 57 83 87 63
20 18 19 20 23 26 30 28 24 20 20 24 23 22 24 26 37 33 33 35 42 47 42 40 44 49 57 61 59 62 59 47 40 47 47 29 19 39 57 72 66 54 41 34
23 20 19 20 25 29 26 23 22 23 24 25 27 29 37 42 36 32 33 34 32 34 42 50 56 56 57 54 62 52 43 39 40 39 21 30 53 60 46 37 32 32 30 25
Wind_Direction_850mb
57 108 87 59 2 4 95 21 152 224 167 176 175 173 178 161 155 155 150 153 167 180 182 176 166 153 152 148 157 175 185 194 203 211 201 218 293 325 308 321 320 333 340 356
49 84 74 61 21 18 38 89 58 75 80 151 146 150 166 172 173 172 175 184 188 192 185 159 150 150 146 151 166 166 174 151 136 138 338 310 301 301 303 314 313 333 341 336
181 297 50 30 342 342 124 64 146 190 169 138 137 167 186 190 193 195 193 195 197 183 162 154 139 126 115 125 154 159 157 172 207 285 324 327 319 310 308 305 298 304 335 333
146 83 75 232 295 284 74 76 94 96 134 149 154 188 199 200 202 207 207 202 186 170 155 147 158 156 156 154 189 210 225 243 267 288 308 319 319 317 302 303 305 313 326 323
117 77 344 323 265 183 104 291 190 148 150 140 147 146 219 215 209 220 211 188 171 159 166 177 191 207 237 278 275 268 272 283 285 290 307 317 310 310 309 306 304 311 317 323
119 126 188 225 221 210 73 280 203 188 163 146 148 142 240 196 198 189 194 178 175 177 184 207 213 228 259 282 293 292 282 283 282 297 312 313 315 311 306 299 303 307 308 316
81 162 281 250 175 132 107 236 178 178 163 161 186 165 199 185 182 189 186 184 184 185 200 221 235 245 247 269 316 314 280 284 292 297 303 311 311 310 301 296 300 299 299 308
87 69 271 174 111 162 213 160 182 188 189 184 181 201 191 192 193 197 198 193 191 202 209 213 234 251 262 278 313 298 292 296 298 301 303 306 305 301 290 293 296 303 300 307
166 215 274 285 235 217 167 149 153 158 178 198 193 215 190 199 205 207 197 195 203 208 219 234 250 258 266 283 278 272 268 275 292 299 304 307 300 298 287 293 287 300 300 307
74 227 258 106 141 152 174 172 166 172 176 188 195 191 198 200 197 192 194 196 201 215 234 244 249 263 272 269 266 262 267 285 295 301 304 306 301 297 292 287 291 297 304 309
300 348 110 132 138 137 133 141 151 153 163 171 195 201 203 193 192 196 196 196 207 224 242 257 262 268 274 266 262 271 284 291 294 298 304 303 299 292 293 290 297 303 306 310
214 194 174 179 157 149 147 148 156 171 184 199 215 223 213 212 212 204 200 209 223 238 246 257 267 282 285 273 268 277 284 289 295 303 306 309 309 302 308 306 296 301 310 309
211 184 155 171 173 170 156 146 161 191 200 204 210 217 224 228 224 207 212 228 241 251 271 277 278 291 289 281 272 277 282 300 295 299 308 305 302 306 314 306 302 310 312 304
189 170 144 165 170 170 183 169 181 212 211 210 210 205 222 228 207 209 233 246 246 270 275 275 279 297 319 297 275 277 282 289 286 289 300 303 302 298 301 305 309 320 311 309
173 179 181 178 164 164 170 145 133 103 93 159 171 169 184 201 212 223 233 237 254 267 274 277 282 298 312 301 297 294 288 286 288 290 292 297 298 301 301 304 308 310 309 309
174 182 181 178 182 176 178 191 197 195 195 186 195 213 209 205 208 217 226 238 249 262 272 281 287 300 310 306 292 287 287 287 286 288 292 296 297 299 301 305 311 315 311 308
182 192 186 186 180 192 214 212 211 208 211 218 229 241 237 229 228 233 242 247 262 268 275 279 291 305 305 297 299 293 286 283 285 290 294 297 297 299 296 300 305 304 305 307
202 209 219 211 200 212 210 212 214 221 222 232 245 246 231 234 244 249 254 257 266 277 280 288 295 291 288 294 292 287 289 291 292 293 296 301 304 304 300 295 299 305 300 301
206 216 206 205 213 218 211 217 208 205 222 250 252 239 232 240 238 244 256 259 272 281 291 285 278 284 288 290 290 290 290 294 295 302 301 299 299 295 296 305 311 309 306 289
217 219 211 209 222 220 207 205 205 216 222 221 258 269 243 241 254 265 269 274 280 288 292 290 301 304 302 295 295 289 280 287 291 299 299 297 297 296 298 297 304 309 309 300
193 189 192 200 197 196 209 209 213 214 224 233 256 267 269 267 269 274 277 284 285 280 283 294 300 302 299 301 301 299 291 288 292 295 293 291 294 292 295 297 299 293 294 291
187 181 181 180 186 199 208 211 208 223 228 251 271 269 272 283 283 280 283 285 283 281 292 294 295 290 292 298 299 299 299 298 297 297 295 295 296 297 297 295 295 288 294 303
172 180 189 200 211 222 208 201 219 243 250 259 271 278 281 284 286 289 295 298 300 294 290 289 287 292 295 295 296 296 299 301 298 295 298 298 299 302 300 300 310 323 323 313
186 197 213 221 223 211 204 216 228 249 255 273 279 278 281 290 300 298 301 301 300 299 295 291 290 290 298 300 301 302 301 294 296 303 303 305 308 303 215 307 334 336 332 324
203 238 247 244 227 217 223 224 234 261 263 265 275 289 303 309 302 311 310 303 307 304 305 307 301 297 300 304 305 301 296 300 293 293 311 326 260 291 333 337 328 332 325 313
255 245 240 235 234 229 222 234 257 254 239 262 280 300 311 312 324 321 311 309 309 308 303 301 304 301 305 307 316 320 306 277 288 304 314 282 278 332 330 317 312 309 315 315
248 233 236 238 231 224 231 251 257 241 258 284 291 299 305 306 303 307 305 313 321 321 319 310 307 308 311 302 310 311 289 291 306 308 300 325 332 320 306 322 324 324 325 324